Regional Weather Roundup
Issued by NWS

Home | Current Version | Previous Version | Text Only | Print | Product List | Glossary On
Versions: 1 2 3 4 5 6 7 8 9 10 11 12 13 14 15 16 17 18 19 20 21 22 23 24 25 26 27 28 29 30 31 32 33 34 35 36 37 38 39 40 41 42 43 44 45 46 47 48 49 50
363
ASUS43 KMPX 171010
RWRMN
WEATHER ROUNDUP FOR MINNESOTA
NATIONAL WEATHER SERVICE TWIN CITIES/CHANHASSEN MN
400 AM CST SUN DEC 17 2017


NOTE: "FAIR" INDICATES FEW OR NO CLOUDS BELOW 12,000 FEET WITH NO
SIGNIFICANT WEATHER AND/OR OBSTRUCTIONS TO VISIBILITY. N/A MEANS
CURRENT SKY AND/OR WEATHER CONDITIONS ARE NOT AVAILABLE.

MNZ060>063-068>070-171100-
   Twin Cities Metro

CITY           SKY/WX    TMP DP  RH WIND       PRES   REMARKS
TWIN CITIES    CLOUDY    20  18  92 N3        30.11S
ST PAUL        MOCLDY    20  17  88 NE5       30.13S WCI  13
CRYSTAL        CLOUDY    20  14  77 CALM      30.10F
BLAINE         CLOUDY    19  18  93 CALM      30.10F
LAKEVILLE      CLOUDY    19  19 100 CALM      30.09S
EDEN PRAIRIE   MOCLDY    22  17  81 N3        30.09F
SOUTH ST PAUL  CLOUDY    21  19  90 N3        30.11S
LAKE ELMO      FOG       21  19  93 CALM      30.12S VSB 1
$$
MNZ001>005-007-008-013>017-022>024-027-028-171100-
   Northwest Minnesota

CITY           SKY/WX    TMP DP  RH WIND       PRES   REMARKS
BEMIDJI        FOG       22  21  96 SW6       30.02F VSB 3/4 WCI  15
HALLOCK        CLEAR     12  10  92 S6        29.99S WCI   3
ROSEAU         CLOUDY    18  12  79 S7        29.98F WCI   8
WARROAD        FOG       10   7  85 CALM      29.98F VSB 3/4
THIEF RVR FALL LGT SNOW  23  21  93 SW10      30.03S VSB 3/4 WCI  12
CROOKSTON      PTCLDY    18  18 100 S3        30.04S FOG
FOSSTON        FOG       21  21 100 S9        30.03F VSB 1   WCI  11
DETROIT LAKES  FOG       25  23  93 SE5       30.05F VSB 1/4 WCI  19
MOORHEAD       CLOUDY    21  19  93 CALM      30.06F
PARK RAPIDS    CLOUDY    24  21  88 SW3       30.03F FOG
MAHNOMEN       FOG       24  24  96 S8        30.02F VSB 1   WCI  16
$$
MNZ006-009>011-018-025>026-171100-
   North Central Minnesota

CITY           SKY/WX    TMP DP  RH WIND       PRES   REMARKS
BAUDETTE       CLOUDY    22  20  92 S12       30.00S WCI  10
FLAG ISLAND    CLOUDY    19  18  93 S5        29.97F WCI  13
INTL FALLS     CLOUDY    22  19  89 VRB3      30.02F
WASKISH        CLOUDY    23  21  93 SW3       30.02F
BIG FORK       CLOUDY    23  21  93 CALM      30.03F
LONGVILLE      CLOUDY    23  21  93 CALM      30.05F
GRAND RAPIDS   CLOUDY    21  19  92 S3        30.06F
CRANE LAKE     CLOUDY    19  18  93 CALM      30.07F
ORR            CLOUDY    19  18  93 CALM      30.03S
COOK           CLOUDY    19  19 100 CALM      30.05F FOG
WALKER         CLOUDY    23  22  96 S3        30.03F FOG
$$
MNZ012-019>021-037-171100-
   Northeast Minnesota

CITY           SKY/WX    TMP DP  RH WIND       PRES   REMARKS
DULUTH         CLOUDY    20  18  92 CALM      30.06F
ELY            CLOUDY    19  18  93 CALM      30.05F
HIBBING        CLOUDY    19  18  95 CALM      30.05F FOG
EVELETH        CLOUDY    19  16  88 CALM      30.06F FOG
DULUTH HARBOR  CLOUDY    23  18  80 S3        30.13S
TWO HARBORS    CLOUDY    25  19  80 CALM      30.07F
SILVER BAY     CLOUDY    21  19  93 CALM      30.06F
GRAND MARAIS     N/A     30  24  78 SW13      30.10F WCI  20
G MARAIS ARPRT CLOUDY    19  16  86 S3        30.03F
$$
MNZ029>031-032-039>041-046>048-054>057-064-171100-
   West Central Minnesota

CITY           SKY/WX    TMP DP  RH WIND       PRES   REMARKS
FERGUS FALLS   FOG       23  23 100 E6        30.10S VSB 1/4 WCI  16
WHEATON        FOG       21  19  93 SE5       30.10R VSB 1   WCI  15
MORRIS         CLOUDY    27  27 100 CALM      30.07S FOG
ALEXANDRIA     CLOUDY    27  26  96 CALM      30.07S FOG
ELBOW LAKE     CLOUDY    24  23  99 CALM      30.08R FOG
WADENA         CLOUDY    25  25 100 CALM      30.06R FOG
GLENWOOD       CLOUDY    27  27 100 SE5       30.08S FOG     WCI  21
APPLETON       CLOUDY    28  27  93 SE3       30.09S
BENSON         CLOUDY    28  27  93 CALM      30.10F FOG
ORTONVILLE     FOG       27  25  93 SE3       30.08S VSB 1/4
MADISON        PTCLDY    27  27 100 CALM      30.08F FOG
WILLMAR        CLOUDY    27  25  93 NE6       30.09F FOG     WCI  20
$$
MNZ033>034-036-042>043-049>051-058-059-171100-
   Central Minnesota

CITY           SKY/WX    TMP DP  RH WIND       PRES   REMARKS
ST CLOUD       CLOUDY    19  17  92 N5        30.11F WCI  12
SAUK CENTRE    CLOUDY    25  24  97 CALM      30.09S FOG
PAYNESVILLE    CLOUDY    24  24  99 CALM      30.09F
AITKIN         CLOUDY    21  19  93 CALM      30.07R FOG
PINE RIVER     CLOUDY    21  21 100 CALM      30.09S FOG
BRAINERD       CLOUDY    24  22  91 SE3       30.09R FOG
STAPLES        CLOUDY    25  25 100 S3        30.07R FOG
LONG PRAIRIE   CLOUDY    27  25  93 SE3       30.09R FOG
LITTLE FALLS   CLOUDY    23  19  86 S7        30.12R WCI  15
LITCHFIELD     CLOUDY    25  23  93 NE5       30.10S WCI  19
BUFFALO        PTCLDY    20  17  89 N3        30.11F
MAPLE LAKE     PTCLDY    21  19  93 N3        30.10F
HUTCHINSON     PTCLDY    24  22  93 N3        30.10S
$$
MNZ037-044-045-052-053-171100-
   East Central Minnesota

CITY           SKY/WX    TMP DP  RH WIND       PRES   REMARKS
PRINCETON      CLOUDY    18  16  93 CALM      30.11F
MORA           CLOUDY    19  18  93 CALM      30.14R
CAMBRIDGE      CLOUDY    18  14  86 CALM      30.12F
RUSH CITY      CLOUDY    17  15  90 CALM      30.13S
MOOSE LAKE     CLOUDY    21  18  86 CALM      30.08S
HINCKLEY       CLOUDY    21  18  86 CALM      30.13R
CLOQUET        CLOUDY    19  18  93 CALM      30.08R
MCGREGOR       CLOUDY    23  21  93 CALM      30.08R
$$
MNZ071>073-080-081-089-090-097-098-171100-
   Southwest Minnesota

CITY           SKY/WX    TMP DP  RH WIND       PRES   REMARKS
MONTEVIDEO     CLOUDY    27  27 100 CALM      30.09F FOG
GRANITE FALLS  MOCLDY    25  24  93 CALM      30.10S
CANBY          CLOUDY    27  26  98 CALM      30.07F FOG
MARSHALL       CLOUDY    24  23  96 CALM      30.07F FOG
REDWOOD FALLS  CLOUDY    27  25  92 NE5       30.08F FOG     WCI  22
OLIVIA         CLOUDY    27  23  86 NE3       30.07F FOG
PIPESTONE      CLEAR     23  21  93 NE3       30.03R FOG
WINDOM         HAZE      25  16  68 N6        30.06R VSB 1/4 WCI  18
WORTHINGTON    SNOW      25  24  96 NE10      30.05S VSB 1/2 WCI  15
JACKSON        FOG       27  25  93 NE8       30.04F VSB 1/2 WCI  18
SLAYTON        FOG       25  24  98 NE5       30.04S VSB 1/2 WCI  19
$$
MNZ065>067-074>077-082>085-091>093-171100-
   South Central Minnesota

CITY           SKY/WX    TMP DP  RH WIND       PRES   REMARKS
MANKATO        CLOUDY    21  19  92 N6        30.08R WCI  13
NEW ULM        CLOUDY    25  19  80 NE5       30.08S WCI  19
ST JAMES       CLOUDY    27  25  93 N7        30.08S FOG     WCI  19
FAIRMONT       CLOUDY    25  24  96 N10       30.06S FOG     WCI  15
GLENCOE        CLOUDY    24  24 100 N3        30.09S
FARIBAULT      PTCLDY    19  18  93 CALM      30.09R
OWATONNA       CLOUDY    19  18  93 NE5       30.06S FOG     WCI  13
WASECA         CLOUDY    19  18  93 NE3       30.07F
ALBERT LEA     CLOUDY    19  18  93 E3        30.04F FOG
$$
MNZ078>079-086>088-094>096-171100-
   Southeast Minnesota

CITY           SKY/WX    TMP DP  RH WIND       PRES   REMARKS
ROCHESTER      FOG       24  24 100 NE8       30.05F VSB 1/4 WCI  15
RED WING       CLOUDY    25  21  86 E3        30.09S FOG
STANTON        CLOUDY    21  19  89 CALM      30.08S
DODGE CENTER   SNOW      21  21 100 E6        30.05F VSB 1/4 WCI  14
WINONA         CLOUDY    30  28  93 E6        30.12S WCI  24
AUSTIN         FOG       23  21  93 E6        30.05S VSB 1/2 WCI  16
PRESTON        FOG       25  24  94 NE5       30.06R VSB 1/4 WCI  20
$$
ABBREVIATIONS USED IN REMARKS
   TC - TEMPERATURES IN CELSIUS
  WCI - WIND CHILL INDEX
   HX - HEAT INDEX
  VSB - VISIBILITY
$$




USA.gov is the U.S. government's official web portal to all federal, state and local government web resources and services.